Observations
| Time | Sensor | AQI | SAQ | Temp °C | Hum % | Pres Pa | CO μg/m³ | H₂S μg/m³ | NO μg/m³ | NO₂ μg/m³ | O₃ μg/m³ | SO₂ μg/m³ | CO₂e PPM | VOC PPM | PM1 μg/m³ | PM2.5 μg/m³ | PM4 μg/m³ | PM10 μg/m³ | TPS µm |
|---|---|---|---|---|---|---|---|---|---|---|---|---|---|---|---|---|---|---|---|
| Wednesday 12 August 2026 | |||||||||||||||||||
| 11:21 | Trim Patrick St | 2 | 29.5 | 45 | 69,250 | 0 | 0 | 0.79 | 8.73 | 81.07 | 10.96 | 5.43 | 11.34 | 12.48 | |||||
| 11:20 | Trim Market St | 2 | 32.9 | 36 | 66,290 | 0 | 0 | 0.49 | 14.49 | 72.42 | 0 | 1.43 | 5.2 | 6.7 | |||||
| 11:19 | Trim Market St | 2 | 33 | 36 | 66,272 | 0 | 0 | 0.48 | 11.91 | 110.1 | 0 | 1.43 | 4.13 | 4.54 | |||||
| 11:19 | Trim Patrick St | 2 | 29.5 | 45 | 69,258 | 0 | 0 | 0.77 | 9.17 | 83.98 | 10.08 | 4.57 | 11.36 | 12.49 | |||||
| 11:18 | Trim Market St | 2 | 33.1 | 36 | 66,280 | 0 | 0 | 0.36 | 12.03 | 109.23 | 0 | 2.14 | 5.2 | 5.72 | |||||
| 11:18 | Trim Patrick St | 2 | 29.6 | 45 | 69,276 | 0 | 0 | 0.76 | 8.71 | 100.33 | 10.83 | 4.57 | 10.63 | 11.69 | |||||
| 11:17 | Trim Market St | 2 | 33.1 | 36 | 66,290 | 0 | 0 | 0.44 | 9.17 | 83.2 | 0 | 1.43 | 4.67 | 5.13 | |||||
| 11:17 | Trim Patrick St | 2 | 29.6 | 44 | 69,264 | 0 | 0 | 0.76 | 7.93 | 65.89 | 9.52 | 6.29 | 11.42 | 12.56 | |||||
| 11:16 | Trim Market St | 2 | 33.2 | 36 | 66,299 | 0 | 0 | 0.42 | 9.6 | 93.43 | 0 | 2.14 | 4.67 | 5.13 | |||||
| 11:16 | Trim Patrick St | 2 | 29.6 | 45 | 69,278 | 0 | 0 | 0.78 | 9.03 | 81.04 | 11.58 | 8 | 13.71 | 15.08 | |||||
| 11:15 | Trim Market St | 2 | 33.3 | 36 | 66,313 | 0 | 0 | 0.41 | 11.97 | 100.56 | 0 | 2.14 | 5.21 | 5.73 | |||||
| 11:15 | Trim Patrick St | 2 | 29.7 | 45 | 69,294 | 0 | 0 | 0.74 | 11.85 | 118.67 | 11.96 | 5.43 | 10.61 | 11.67 | |||||
| 11:14 | Trim Market St | 2 | 33.4 | 36 | 66,331 | 0 | 0 | 0.4 | 12.1 | 81.83 | 0 | 2.14 | 5.22 | 5.74 | |||||
| 11:14 | Trim Patrick St | 2 | 29.7 | 45 | 69,280 | 0 | 0 | 0.79 | 8.73 | 78.13 | 10.21 | 5.43 | 10.61 | 11.67 | |||||
| 11:13 | Trim Market St | 2 | 33.4 | 36 | 66,321 | 0 | 0 | 0.41 | 11.72 | 84.72 | 0 | 2.14 | 5.75 | 5.86 | |||||
| 11:13 | Trim Patrick St | 2 | 29.8 | 45 | 69,269 | 0 | 0 | 0.81 | 8.07 | 91.55 | 11.78 | 4.57 | 9.82 | 10.81 | |||||
| 11:12 | Trim Market St | 2 | 33.6 | 35 | 66,339 | 0 | 0 | 0.38 | 11.65 | 129.33 | 0 | 1.43 | 4.68 | 5.15 | |||||
| 11:12 | Trim Patrick St | 2 | 29.8 | 44 | 69,252 | 0 | 0 | 0.83 | 9.46 | 84.88 | 9.92 | 5.43 | 9.9 | 10.89 | |||||
| 11:11 | Trim Market St | 2 | 33.6 | 35 | 66,360 | 0 | 0 | 0.4 | 12.14 | 95.7 | 0 | 1.43 | 4.7 | 5.17 | |||||
| 11:11 | Trim Patrick St | 2 | 29.8 | 45 | 69,262 | 0 | 0 | 0.82 | 8.46 | 85.02 | 10.55 | 4.57 | 10.63 | 11.69 | |||||